Tracking 29892 objects as of 21-Nov-2024
HD Live streaming from Space Station
objects crossing your sky now

INTELSAT 33E DEB

Track INTELSAT 33E DEB now!


NORAD ID: 61993
Int'l Code: 2016-053K
Perigee: 35,198.7 km
Apogee: 35,873.8 km
Inclination: 0.2 °
Period: 1,423.0 minutes
Semi major axis: 41907 km
RCS: Unknown
Launch date: August 24, 2016
Source: International Telecommunications Satellite Organization (ITSO)
Launch site: FRENCH GUIANA (FRGUI)

Note: This is SATELLITE DEBRIS
Your satellite tracking list
Your tracking list is empty




NASA's NSSDC Master Catalog

Two Line Element Set (TLE):
1 61993U 16053K   24325.36999717  .00000076  00000-0  00000-0 0  9993
2 61993   0.1969 357.5297 0080547  18.7570 343.9914  1.01197332   331
Source of the keplerian elements: AFSPC